Location: Gez
(43.0167°N, 0.1000°W)
Time: 13:00:33
(UTC+00:00)

SL-24 R/B - Pass Details

Date: 18 January 2026
Orbit: 679 x 1188 km, 98.2° (Epoch: 10 February)

Event Time Altitude Azimuth Distance (km) Brightness Sun altitude
Rises 04:04:06 0° 12° (NNE) 4,078 8.9 -36.8°
Reaches altitude 10° 04:06:44 10° 13° (NNE) 3,124 8.3 -36.3°
Enters shadow 04:11:39 47° 15° (NNE) 1,528 6.5 -35.4°
